EW5697 Weather Reports


Display with metric or nautical units.
time (UTC)temp
F
wind
direction
speed
MPH
gust
MPH
rain 1hr
in
rain 24hr
in
rain mn
in
humidity
%
barometer
mb
20260508043043 61 197 0.0 0.0 0.00 0.00 0.00 75 1018.7
20260508041608 62 147 0.0 1.0 0.00 0.00 0.00 73 1018.5
20260508040101 62 207 0.0 4.0 0.00 0.00 0.00 72 1018.3
20260508034542 63 137 0.0 2.0 0.00 0.00 0.00 71 1018.0
20260508033041 63 192 0.0 8.0 0.00 0.00 0.00 69 1017.7
20260508031541 64 187 0.0 2.0 0.00 0.00 0.00 68 1017.5
20260508030040 65 139 0.0 0.0 0.00 0.00 0.00 68 1017.2
20260508024544 67 149 0.0 0.0 0.00 0.00 0.00 66 1017.0
20260508023038 69 101 0.0 6.0 0.00 0.00 0.00 62 1016.9
20260508021540 70 223 0.0 0.0 0.00 0.00 0.00 60 1016.9
20260508020044 72 176 0.0 1.0 0.00 0.00 0.00 57 1016.8
20260508014537 73 177 0.0 0.0 0.00 0.00 0.00 54 1016.8
20260508013036 75 193 0.0 2.0 0.00 0.00 0.00 53 1016.7
20260508011543 76 151 0.0 0.0 0.00 0.00 0.00 51 1016.8
20260508010034 76 137 0.0 0.0 0.00 0.00 0.00 48 1016.8
20260508004534 77 166 0.0 1.0 0.00 0.00 0.00 45 1016.8
20260508003037 78 118 0.0 0.0 0.00 0.00 0.00 42 1016.8
20260508001539 79 149 0.0 0.0 0.00 0.00 0.00 44 1016.7
20260508000034 79 187 0.0 0.0 0.00 0.00 0.00 42 1016.7
20260507234532 79 126 0.0 0.0 0.00 0.00 0.00 42 1016.6
20260507233052 79 259 0.0 0.0 0.00 0.00 0.00 43 1016.7
20260507231536 78 191 0.0 2.0 0.00 0.00 0.00 42 1016.8
20260507230029 79 140 0.0 0.0 0.00 0.00 0.00 44 1016.9
20260507224531 79 207 0.0 0.0 0.00 0.00 0.00 42 1017.0
20260507223028 79 140 0.0 1.0 0.00 0.00 0.00 42 1017.0
20260507221625 79 174 0.0 0.0 0.00 0.00 0.00 42 1017.2
20260507220025 79 233 0.0 1.0 0.00 0.00 0.00 42 1017.5
20260507214521 79 212 0.0 0.0 0.00 0.00 0.00 42 1017.6
20260507213022 78 229 0.0 0.0 0.00 0.00 0.00 45 1017.9
20260507211515 78 186 0.0 0.0 0.00 0.00 0.00 45 1018.1
20260507210011 76 202 0.0 0.0 0.00 0.00 0.00 50 1018.3
20260507204506 75 193 0.0 0.0 0.00 0.00 0.00 49 1018.4
20260507203104 74 202 0.0 0.0 0.00 0.00 0.00 49 1018.6
20260507201600 73 189 0.0 0.0 0.00 0.00 0.00 51 1018.6
20260507200057 72 212 0.0 0.0 0.00 0.00 0.00 53 1018.7
20260507194617 71 220 0.0 0.0 0.00 0.00 0.00 53 1018.9
20260507193048 70 227 0.0 0.0 0.00 0.00 0.00 56 1019.0
20260507191544 68 160 0.0 0.0 0.00 0.00 0.00 60 1019.1
20260507190048 67 250 0.0 1.0 0.00 0.00 0.00 63 1019.2
20260507184538 66 137 0.0 5.0 0.00 0.00 0.00 65 1019.3
20260507183042 65 113 0.0 1.0 0.00 0.00 0.00 65 1019.4
20260507181531 64 183 0.0 0.0 0.00 0.00 0.00 68 1019.4
20260507180035 64 212 0.0 0.0 0.00 0.00 0.00 70 1019.5
20260507174526 63 131 0.0 0.0 0.00 0.00 0.00 71 1019.6
20260507173035 63 175 0.0 0.0 0.00 0.00 0.00 73 1019.8
20260507171537 62 202 0.0 6.0 0.00 0.00 0.00 72 1019.9
20260507170018 61 202 0.0 0.0 0.00 0.00 0.00 75 1020.0
20260507164515 61 220 0.0 0.0 0.00 0.00 0.00 79 1019.9
20260507163013 60 181 0.0 0.0 0.00 0.00 0.00 79 1020.0
20260507161508 58 207 0.0 0.0 0.00 0.00 0.00 83 1020.1
20260507160007 57 168 0.0 0.0 0.00 0.00 0.00 85 1020.0
20260507154502 56 202 0.0 0.0 0.00 0.00 0.00 87 1020.1
20260507153101 55 197 0.0 0.0 0.00 0.00 0.00 88 1020.1
20260507151601 54 195 0.0 0.0 0.00 0.00 0.00 90 1020.1
20260507150100 53 185 0.0 0.0 0.00 0.00 0.00 90 1020.2
20260507144600 52 202 0.0 0.0 0.00 0.00 0.00 91 1020.2
20260507143059 52 170 0.0 0.0 0.00 0.00 0.00 91 1020.0
20260507141621 51 167 0.0 0.0 0.00 0.00 0.00 91 1020.0
20260507140052 51 168 0.0 0.0 0.00 0.00 0.00 91 1019.9
20260507134549 51 168 0.0 0.0 0.00 0.00 0.00 90 1019.8
20260507133048 51 168 0.0 0.0 0.00 0.00 0.00 89 1019.8
20260507131548 51 168 0.0 0.0 0.00 0.00 0.00 89 1019.7
20260507130046 52 168 0.0 0.0 0.00 0.00 0.00 89 1019.7
20260507124545 52 168 0.0 0.0 0.00 0.00 0.00 90 1019.7
20260507123045 52 129 0.0 0.0 0.00 0.00 0.00 89 1019.6
20260507121545 52 108 0.0 0.0 0.00 0.00 0.00 89 1019.7
20260507120048 52 108 0.0 0.0 0.00 0.00 0.00 89 1019.8
20260507114543 52 108 0.0 0.0 0.00 0.00 0.00 89 1019.9
20260507113046 52 108 0.0 0.0 0.00 0.00 0.00 89 1020.0
20260507111538 52 84 0.0 0.0 0.00 0.00 0.00 88 1020.2
20260507110038 52 83 0.0 0.0 0.00 0.00 0.00 88 1020.2
20260507104535 52 83 0.0 0.0 0.00 0.00 0.00 88 1020.3
20260507103033 52 83 0.0 0.0 0.00 0.00 0.00 87 1020.5
20260507101532 52 83 0.0 0.0 0.00 0.00 0.00 85 1020.6
20260507100037 52 83 0.0 0.0 0.00 0.00 0.00 84 1020.6
20260507094530 51 83 0.0 0.0 0.00 0.00 0.00 82 1020.7
20260507093027 51 83 0.0 0.0 0.00 0.00 0.00 80 1020.8
20260507091527 51 83 0.0 0.0 0.00 0.00 0.00 79 1020.8
20260507090023 51 83 0.0 0.0 0.00 0.00 0.00 78 1020.8
20260507084523 52 83 0.0 0.0 0.00 0.00 0.00 78 1020.8
20260507083022 52 83 0.0 0.0 0.00 0.00 0.00 77 1020.9
20260507081521 52 83 0.0 0.0 0.00 0.00 0.00 76 1020.9
20260507080016 53 83 0.0 0.0 0.00 0.00 0.00 75 1021.0
20260507074525 53 83 0.0 0.0 0.00 0.00 0.00 73 1020.9
20260507073012 54 83 0.0 0.0 0.00 0.00 0.00 72 1021.0
20260507071510 54 83 0.0 0.0 0.00 0.00 0.00 71 1021.0
20260507070009 55 83 0.0 0.0 0.00 0.00 0.00 71 1020.9
20260507064504 55 83 0.0 0.0 0.00 0.00 0.00 72 1021.0
20260507063004 55 83 0.0 0.0 0.00 0.00 0.00 70 1021.2
20260507061504 56 83 0.0 0.0 0.00 0.00 0.00 69 1021.2
20260507060004 56 83 0.0 0.0 0.00 0.00 0.00 70 1021.2
20260507054503 57 83 0.0 0.0 0.00 0.00 0.00 69 1021.2
20260507053004 58 83 0.0 0.0 0.00 0.00 0.00 65 1021.3
20260507051503 59 83 0.0 0.0 0.00 0.00 0.00 63 1021.3
20260507050001 60 83 0.0 0.0 0.00 0.00 0.00 62 1021.2
20260507044506 62 83 0.0 0.0 0.00 0.00 0.00 59 1021.0